{"data":{"norad_id":53815,"epoch":"2026-09-20T23:27:00.849024Z","epoch_age_seconds":111369,"freshness":"FRESH","line1":"1 53815U 22113A   26263.97709316  .00018869  00000+0  41779-3 0  9994","line2":"2 53815  97.4392 327.9364 0002499 229.5286 130.5744 15.43833617222203","mean_motion":15.43833617,"eccentricity":0.0002499,"inclination_deg":97.4392,"raan_deg":327.9364,"arg_perigee_deg":229.5286,"mean_anomaly_deg":130.5744,"bstar":0.00041779,"rev_number":22220,"period_min":93.274300037476,"perigee_km":433.10486047786,"apogee_km":436.50997009662,"semimajor_km":6812.9444152872,"source":"CELESTRAK","updated_at":"2026-09-21T09:00:09.220669Z"}}